Location: Peebles
(55.6412°N, 3.1714°W)
Time: 23:48:32
(UTC+01:00)

NOAA 16 DEB - Pass Details

Date: 09 July 2022
Orbit: 836 x 880 km, 98.8° (Epoch: 14 August)

Event Time Altitude Azimuth Distance (km) Brightness Sun altitude
Rises 23:32:01 0° 212° (SSW) 3,454 ? -8.9°
Reaches altitude 10° 23:35:09 10° 230° (SW) 2,528 ? -9.1°
Maximum altitude 23:39:02 19° 274° (W) 1,981 ? -9.3°
Drops below altitude 10° 23:42:58 10° 318° (NW) 2,550 ? -9.5°
Sets 23:46:09 0° 336° (NNW) 3,495 ? -9.7°
